Regional Weather Roundup
Issued by NWS

Home | Current Version | Previous Version | Graphics & Text | Print | Product List | Glossary On
Versions: 1 2 3 4 5 6 7 8 9 10 11 12 13 14 15 16 17 18 19 20 21 22 23 24 25 26 27 28 29 30 31 32 33 34 35 36 37 38 39 40 41 42 43 44 45 46 47 48 49 50
000
ASUS43 KBIS 020810
RWRND

NORTH DAKOTA REGIONAL WEATHER ROUNDUP
NATIONAL WEATHER SERVICE BISMARCK ND
300 AM CDT WED SEP 02 2015

NOTE: "FAIR" INDICATES FEW OR NO CLOUDS BELOW 12,000 FEET WITH NO
SIGNIFICANT WEATHER AND/OR OBSTRUCTIONS TO VISIBILITY.


NDZ001>003-009>011-017-020900-
NORTHWEST NORTH DAKOTA

CITY           SKY/WX    TMP DP  RH WIND       PRES   REMARKS
WILLISTON      CLEAR     55  44  66 N3        29.78S
MINOT          CLEAR     64  59  83 CALM      29.77S
MINOT AFB      CLEAR     62  61  95 SE5       29.76S
$$

NDZ018>021-031>035-040>046-020900-
SOUTHWEST NORTH DAKOTA

CITY           SKY/WX    TMP DP  RH WIND       PRES   REMARKS
BISMARCK       CLEAR     67  64  90 E8        29.78F
DICKINSON      CLEAR     58  54  86 CALM      29.80S
GARRISON         N/A     63  60  90 CALM      29.78S
HETTINGER ARPT CLEAR     53  49  86 CALM      29.83S
$$

NDZ004>008-012>016-024-026-027-054-020900-
NORTHEAST NORTH DAKOTA

CITY           SKY/WX    TMP DP  RH WIND       PRES   REMARKS
GRAND FORKS    CLEAR     65  60  84 SE6       29.81S
GRND FRKS AFB  CLEAR     63  59  87 S3        29.81S
DEVILS LAKE    CLEAR     68  59  73 SE7       29.79F
$$

NDZ022-023-025-028>030-036>039-047>053-020900-
SOUTHEAST NORTH DAKOTA

CITY           SKY/WX    TMP DP  RH WIND       PRES   REMARKS
FARGO          CLEAR     73  69  87 S12       29.83R
JAMESTOWN      CLEAR     68  64  87 S8        29.81S
$$




USA.gov is the U.S. government's official web portal to all federal, state and local government web resources and services.